Find Starlink 31411

NORAD ID: 59182 Int'l Des: 2024-045 Owner: SPXS Country: US Constellation: starlink operational
LEOCIRCULAR

現在のビュー

3D地球を読み込み中...

About Starlink 31411

Starlink 31411 (NORAD 59182) is a starlink constellation satellite (v2 mini) launched Mar 11, 2024 by SPXS of US. It operates in LEO, CIRCULAR orbit with a mass of 730.00 kg.

Starlink 31411について

説明を読み込み中...

次回通過

Passes for default location (London). Set your location on the main map for personalized predictions.

高度履歴

Loading altitude history...

軌道要素

1 59182U 24045E 26173.49709258 -.00000503 00000-0 -87633-5 0 9995
2 59182 42.9994 220.3609 0001371 276.7421 83.3275 15.27577312129197
Epoch: Jun 22, 2026 • Age: 22 hours

現在のステータス

高度 486.5 km
速度 7.63 km/s
衛星直下点 40.30°N, 96.88°W
打ち上げ日 Mar 11, 2024
運用期間 2.2 years
タイプ internet

技術仕様

分類 Payload
質量 730.00 kg
乾燥質量 700.00 kg
総質量 730.00 kg
長さ 0.30 m
直径 4.10 m
スパン 29.00 m
形状 Box + pan
製造者 SPXS
バスタイプ Starlink V2M
フェーズステータス In Orbit
所有者/国 SPXS/US

Most Searched